Regional Weather Roundup
Issued by NWS Goodland, KS

Home | Current Version | Previous Version | Text Only | Print | Product List | Glossary Off
Versions: 1 2 3 4 5 6 7 8 9 10 11 12 13 14 15 16 17 18 19 20 21 22 23 24 25 26 27 28 29 30 31 32 33 34 35 36 37 38 39 40 41 42 43 44 45 46 47 48 49 50

475
ASUS43 KGLD 251808
RWRGLD

GOODLAND FORECAST AREA HOURLY WEATHER ROUNDUP
NATIONAL WEATHER SERVICE GOODLAND KS
1100 AM MST SAT FEB 25 2017

...OFFICIAL OBSERVATIONS...

CITY           SKY/WX    TMP DP  RH WIND       PRES   REMARKS
GOODLAND KS    SUNNY     38  16  40 W13G23    29.98F
HILL CITY KS   CLOUDY    38  23  55 W15       30.06F
IMPERIAL NEB   SUNNY     30  16  56 W14       29.97F WCI  19
MCCOOK NEB     SUNNY     37  25  61 W14G24    29.99F
AKRON CO       SUNNY     28  17  63 W8        29.93F
BURLINGTON CO  SUNNY     37  15  40 N9G17     29.96F
LIMON CO       SUNNY     32   3  29 NW12      29.91F
$$

...UNOFFICIAL OBSERVATIONS...

CITY           SKY/WX    TMP DP  RH WIND       PRES   REMARKS
LENORA KS        N/A     36  32  85 W13         N/A
SHARON SPRINGS   N/A     38  21  49 SW10        N/A
TRENTON NEB      N/A     34  32  92 CALM        N/A
KIT CARSON CO    N/A     33  15  48 CALM        N/A
YUMA CO        FAIR      28  16  59 W9        29.96S
$$




USA.gov is the U.S. government's official web portal to all federal, state and local government web resources and services.